Weather History for Menominee, MI

Change the Weather History Date:

Monday, October 13, 2014

  Actual Average Record
Temperature  
Mean Temperature 52 °F -  
Max Temperature 57 °F 58 °F 81 °F (1956)
Min Temperature 48 °F 39 °F 20 °F (1988)
Degree Days  
Heating Degree Days 12    
Growing Degree Days 2 (Base 50)    
Moisture  
Dew Point 49 °F    
Average Humidity 88    
Maximum Humidity 94    
Minimum Humidity 82    
Precipitation  
Precipitation 0.73 in - - ()
Sea Level Pressure  
Sea Level Pressure 29.81 in    
Wind  
Wind Speed 5 mph (ESE)    
Max Wind Speed 17 mph    
Max Gust Speed 28 mph    
Visibility 8 miles    
Events      
Averages and records for this station are not official NWS values.
T = Trace of Precipitation, MM = Missing Value Source: NWS Daily Summary

Daily Weather History Graph

Daily Weather History Graph

Search for Another Location

Airport:

Trip Planner

Search our weather history database for the weather conditions in past years. The results will help you decide how hot, cold, wet, or windy it might be!

Date:

Astronomy

Oct. 13, 2014 Rise Set
Actual Time 7:03 AM CDT 6:08 PM CDT
Civil Twilight 6:34 AM CDT 6:38 PM CDT
Nautical Twilight 6:00 AM CDT 7:12 PM CDT
Astronomical Twilight 5:25 AM CDT 7:46 PM CDT
Moon 10:10 PM CDT (10/13) 12:26 PM CDT (10/13)
Length of Visible Light 12h 04m
Length of Day
11h 05m
Waning Gibbous, 70% of the Moon is Illuminated
Oct 13
Waning Gibbous
Oct 15
Last Quarter
Oct 23
New
Oct 30
First Quarter
Nov 6
Full

Hourly Weather History & Observations

Time (CDT) Temp. Dew Point Humidity Pressure Visibility Wind Dir Wind Speed Gust Speed Precip Events Conditions
12:15 AM 48.2 °F 44.6 °F 87% 29.92 in 10.0 mi Calm Calm - N/A   Overcast
12:35 AM 48.2 °F 44.6 °F 87% 29.91 in 10.0 mi Calm Calm - N/A   Mostly Cloudy
12:55 AM 48.2 °F 44.6 °F 87% 29.90 in 10.0 mi SSE 3.5 mph - N/A   Overcast
1:15 AM 48.2 °F 44.6 °F 87% 29.90 in 10.0 mi Calm Calm - N/A   Overcast
1:35 AM 48.2 °F 44.6 °F 87% 29.89 in 10.0 mi East 3.5 mph - N/A   Overcast
1:55 AM 48.2 °F 44.6 °F 87% 29.89 in 10.0 mi Calm Calm - N/A   Overcast
2:15 AM 48.2 °F 46.4 °F 93% 29.88 in 10.0 mi Calm Calm - N/A   Overcast
2:35 AM 48.2 °F 46.4 °F 93% 29.88 in 9.0 mi Calm Calm - N/A   Overcast
2:55 AM 50.0 °F 46.4 °F 87% 29.87 in 10.0 mi Calm Calm - N/A   Overcast
3:15 AM 50.0 °F 46.4 °F 87% 29.87 in 10.0 mi Calm Calm - N/A   Overcast
3:35 AM 51.8 °F 46.4 °F 82% 29.86 in 10.0 mi SE 3.5 mph - N/A   Overcast
3:55 AM 51.8 °F 46.4 °F 82% 29.86 in 10.0 mi SE 5.8 mph - N/A   Overcast
4:15 AM 51.8 °F 46.4 °F 82% 29.86 in 10.0 mi SE 5.8 mph - 0.01 in   Overcast
4:35 AM 51.8 °F 46.4 °F 82% 29.85 in 10.0 mi SE 6.9 mph - 0.01 in   Overcast
4:55 AM 51.8 °F 46.4 °F 82% 29.86 in 10.0 mi SSE 6.9 mph - 0.01 in   Overcast
5:15 AM 51.8 °F 46.4 °F 82% 29.85 in 10.0 mi SSE 9.2 mph - N/A   Overcast
5:35 AM 51.8 °F 46.4 °F 82% 29.84 in 10.0 mi SSE 8.1 mph - N/A   Overcast
5:55 AM 51.8 °F 46.4 °F 82% 29.84 in 10.0 mi SSE 6.9 mph - N/A   Overcast
6:15 AM 51.8 °F 46.4 °F 82% 29.85 in 10.0 mi SSE 8.1 mph - N/A   Overcast
6:35 AM 51.8 °F 46.4 °F 82% 29.86 in 10.0 mi SSE 6.9 mph - N/A   Overcast
6:55 AM 50.0 °F 46.4 °F 87% 29.85 in 9.0 mi SE 6.9 mph - N/A   Overcast
7:15 AM 50.0 °F 46.4 °F 87% 29.84 in 4.0 mi ESE 5.8 mph - N/A   Overcast
7:35 AM 50.0 °F 46.4 °F 87% 29.83 in 10.0 mi ESE 5.8 mph - N/A   Overcast
7:55 AM 51.8 °F 46.4 °F 82% 29.84 in 10.0 mi SE 6.9 mph - N/A   Overcast
8:15 AM 51.8 °F 46.4 °F 82% 29.86 in 8.0 mi SE 6.9 mph - N/A   Overcast
8:35 AM 51.8 °F 48.2 °F 88% 29.86 in 5.0 mi SE 6.9 mph - N/A   Overcast
8:55 AM 51.8 °F 48.2 °F 88% 29.87 in 2.5 mi SSE 3.5 mph - N/A   Overcast
9:15 AM 51.8 °F 48.2 °F 88% 29.86 in 1.8 mi SSE 3.5 mph - N/A   Overcast
9:35 AM 51.8 °F 48.2 °F 88% 29.86 in 3.0 mi South 4.6 mph - N/A   Overcast
9:55 AM 51.8 °F 50.0 °F 94% 29.86 in 3.0 mi South 5.8 mph - N/A   Overcast
10:15 AM 51.8 °F 50.0 °F 94% 29.86 in 2.5 mi South 5.8 mph - N/A   Overcast
10:35 AM 53.6 °F 50.0 °F 88% 29.86 in 2.5 mi South 5.8 mph - N/A   Overcast
10:55 AM 53.6 °F 51.8 °F 94% 29.86 in 2.5 mi South 4.6 mph - N/A   Overcast
11:15 AM 53.6 °F 51.8 °F 94% 29.86 in 2.5 mi Calm Calm - N/A   Overcast
11:35 AM 53.6 °F 50.0 °F 88% 29.84 in 5.0 mi Calm Calm - N/A   Overcast
11:55 AM 53.6 °F 51.8 °F 94% 29.84 in 8.0 mi Calm Calm - N/A   Overcast
12:15 PM 55.4 °F 51.8 °F 88% 29.84 in 9.0 mi Calm Calm - N/A   Overcast
12:35 PM 55.4 °F 50.0 °F 82% 29.84 in 10.0 mi SW 3.5 mph - N/A   Overcast
12:55 PM 55.4 °F 51.8 °F 88% 29.83 in 10.0 mi South 3.5 mph - N/A   Overcast
1:15 PM 55.4 °F 51.8 °F 88% 29.82 in 8.0 mi ESE 5.8 mph - N/A   Overcast
1:35 PM 55.4 °F 51.8 °F 88% 29.83 in 6.0 mi SE 3.5 mph - N/A   Overcast
1:55 PM 57.2 °F 51.8 °F 82% 29.81 in 7.0 mi ESE 6.9 mph - N/A   Overcast
2:15 PM 55.4 °F 51.8 °F 88% 29.81 in 5.0 mi ESE 6.9 mph - N/A   Overcast
2:35 PM 55.4 °F 51.8 °F 88% 29.81 in 5.0 mi ESE 4.6 mph - N/A   Overcast
2:55 PM 55.4 °F 51.8 °F 88% 29.80 in 5.0 mi ENE 4.6 mph - N/A   Overcast
3:15 PM 55.4 °F 51.8 °F 88% 29.79 in 7.0 mi East 4.6 mph - N/A   Overcast
3:35 PM 55.4 °F 50.0 °F 82% 29.80 in 7.0 mi East 4.6 mph - N/A   Overcast
3:55 PM 55.4 °F 50.0 °F 82% 29.80 in 9.0 mi East 3.5 mph - N/A   Overcast
4:15 PM 55.4 °F 50.0 °F 82% 29.80 in 8.0 mi ENE 4.6 mph - N/A   Overcast
4:35 PM 55.4 °F 50.0 °F 82% 29.80 in 8.0 mi ENE 4.6 mph - N/A   Overcast
4:55 PM 55.4 °F 50.0 °F 82% 29.79 in 9.0 mi East 4.6 mph - N/A   Overcast
5:15 PM 53.6 °F 50.0 °F 88% 29.79 in 7.0 mi ENE 5.8 mph - N/A   Overcast
5:35 PM 53.6 °F 50.0 °F 88% 29.79 in 7.0 mi ENE 6.9 mph - N/A   Overcast
5:55 PM 53.6 °F 50.0 °F 88% 29.79 in 8.0 mi NE 5.8 mph - N/A   Overcast
6:15 PM 53.6 °F 50.0 °F 88% 29.79 in 6.0 mi East 5.8 mph - N/A   Overcast
6:35 PM 53.6 °F 50.0 °F 88% 29.77 in 5.0 mi NE 4.6 mph - 0.02 in   Overcast
6:55 PM 53.6 °F 51.8 °F 94% 29.76 in 5.0 mi ENE 5.8 mph - 0.03 in   Overcast
7:15 PM 53.6 °F 51.8 °F 94% 29.76 in 5.0 mi ENE 8.1 mph - 0.02 in   Overcast
7:35 PM 53.6 °F 51.8 °F 94% 29.76 in 6.0 mi ENE 12.7 mph - 0.05 in   Overcast
7:55 PM 53.6 °F 51.8 °F 94% 29.73 in 5.0 mi ENE 13.8 mph - 0.08 in   Overcast
8:15 PM 53.6 °F 51.8 °F 94% 29.71 in 6.0 mi ENE 16.1 mph - 0.03 in   Overcast
8:35 PM 53.6 °F 51.8 °F 94% 29.69 in 7.0 mi ENE 17.3 mph - 0.05 in   Overcast
8:55 PM 53.6 °F 51.8 °F 94% 29.71 in 7.0 mi ENE 12.7 mph - 0.10 in   Overcast
9:15 PM 53.6 °F 51.8 °F 94% 29.71 in 6.0 mi ENE 16.1 mph - 0.08 in   Overcast
9:35 PM 53.6 °F 51.8 °F 94% 29.68 in 7.0 mi ENE 16.1 mph 20.7 mph 0.11 in   Overcast
9:55 PM 53.6 °F 51.8 °F 94% 29.67 in 8.0 mi ENE 15.0 mph 23.0 mph 0.13 in   Overcast
10:15 PM 53.6 °F 51.8 °F 94% 29.66 in 8.0 mi NE 17.3 mph 25.3 mph 0.02 in   Overcast
10:35 PM 53.6 °F 51.8 °F 94% 29.66 in 7.0 mi ENE 16.1 mph 27.6 mph 0.10 in   Overcast
10:55 PM 53.6 °F 51.8 °F 94% 29.65 in 10.0 mi NE 13.8 mph 21.9 mph 0.17 in   Overcast
11:15 PM 53.6 °F 51.8 °F 94% 29.64 in 8.0 mi NE 12.7 mph 21.9 mph 0.12 in   Overcast
11:35 PM 53.6 °F 51.8 °F 94% 29.64 in 10.0 mi NNE 11.5 mph - 0.18 in   Overcast
11:55 PM 53.6 °F 51.8 °F 94% 29.63 in 8.0 mi NNE 11.5 mph - 0.21 in   Overcast